map of BIK home
Great Circle Mapper logo
BIK - Airport
Location
City:  Biak, Papua, Indonesia
Name:Frans Kaisiepo
ICAO / IATA:WABB / BIK

Details
Type:Airport (Aerodrome, Airfield)
Use:Public/Civil
Latitude:111'24"S (-1.190016)
Longitude:13606'29"E (136.107997)
Datum:WGS 1984
Elevation:46 ft (14 m)
Variation:2.25E (WMM2015 magnetic declination)
-0.09 annual change
Runways:1
Longest:11715 × 150 ft (3571 × 45.5 m), paved

Time
Time Zone:UTC+9
Local Time:

Weather
TAF:WABB 070500Z 0706/0812 28010KT 9999 SCT018
TEMPO 0706/0708 7000 -RA FEW017CB
BECMG 0714/0716 00000KT 9000
TEMPO 0720/0724 7000 -RA FEW017CB
TEMPO 0800/0803 5000 -RA FEW017CB
BECMG 0805/0807 09008KT 9999

Related Locations
Nearby:
Farthest:CTP: 12215 mi / 19658 km
Carutapera [Aeropuerto Carutapera], MA, BR

Find:

   beyond  
but within

Other Information
Maps:
NOTAMs:
Links:
Sources:

  
flag of Indonesia   

Sectional Chart

Flight Planning
at skyvector.com

Satellite Image

Google Maps Satellite view

 

Copyright © 2004-2016 Karl L. Swartz. All rights reserved.
The Great Circle Mapper name and logo are trademarks of the Great Circle Mapper.
All other trademarks mentioned herein belong to their respective owners.
Please see credits for attibutions and further copyright information.

  Follow gcmap on Facebook Follow gcmap on Twitter Follow gcmap on Google+ GCmap on LinkedIn

hCard Microformat

Geo Microformat